| time (UTC) | temp F | wind direction | speed MPH | gust MPH | rain 1hr in | rain 24hr in | rain mn in | humidity % | barometer mb |
| 20260504035916 | 71 | 0.0 | 0.0 | 0.00 | 0.00 | 0.00 | 57 | 1007.3 | |
| 20260504034936 | 72 | 0.0 | 0.0 | 0.00 | 0.00 | 0.00 | 59 | 1007.2 | |
| 20260504033916 | 73 | 0.0 | 0.0 | 0.00 | 0.00 | 0.00 | 59 | 1006.9 | |
| 20260504032936 | 74 | 0.0 | 0.0 | 0.00 | 0.00 | 0.00 | 56 | 1006.7 | |
| 20260504031916 | 75 | 0.0 | 0.0 | 0.00 | 0.00 | 0.00 | 55 | 1006.7 | |
| 20260504030916 | 76 | 0.0 | 0.0 | 0.00 | 0.00 | 0.00 | 52 | 1006.6 | |
| 20260504025917 | 77 | 0.0 | 1.0 | 0.00 | 0.00 | 0.00 | 49 | 1006.6 | |
| 20260504024916 | 79 | 0.0 | 0.0 | 0.00 | 0.00 | 0.00 | 46 | 1006.6 | |
| 20260504023917 | 80 | 0.0 | 0.0 | 0.00 | 0.00 | 0.00 | 45 | 1006.5 | |
| 20260504022916 | 80 | 225 | 1.0 | 2.0 | 0.00 | 0.00 | 0.00 | 44 | 1006.5 |
| 20260504021916 | 82 | 225 | 1.0 | 1.0 | 0.00 | 0.00 | 0.00 | 42 | 1006.6 |
| 20260504020937 | 84 | 0.0 | 1.0 | 0.00 | 0.00 | 0.00 | 39 | 1006.7 | |
| 20260504015917 | 85 | 0.0 | 0.0 | 0.00 | 0.00 | 0.00 | 37 | 1006.8 | |
| 20260504014916 | 85 | 0.0 | 1.0 | 0.00 | 0.00 | 0.00 | 37 | 1006.8 | |
| 20260504013916 | 85 | 315 | 1.0 | 1.0 | 0.00 | 0.00 | 0.00 | 37 | 1006.7 |
| 20260504012916 | 85 | 0.0 | 1.0 | 0.00 | 0.00 | 0.00 | 36 | 1006.8 | |
| 20260504011916 | 85 | 45 | 1.0 | 2.0 | 0.00 | 0.00 | 0.00 | 35 | 1006.8 |
| 20260504010916 | 86 | 68 | 2.0 | 3.0 | 0.00 | 0.00 | 0.00 | 35 | 1006.9 |
| 20260504005916 | 85 | 0 | 1.0 | 3.0 | 0.00 | 0.00 | 0.00 | 36 | 1006.8 |
| 20260504004916 | 85 | 0.0 | 1.0 | 0.00 | 0.00 | 0.00 | 34 | 1006.8 | |
| 20260504003916 | 85 | 315 | 2.0 | 2.0 | 0.00 | 0.00 | 0.00 | 38 | 1006.9 |
| 20260504002956 | 85 | 0 | 2.0 | 3.0 | 0.00 | 0.00 | 0.00 | 35 | 1007.0 |
| 20260504001916 | 85 | 338 | 1.0 | 2.0 | 0.00 | 0.00 | 0.00 | 35 | 1006.9 |
| 20260504000916 | 85 | 0 | 1.0 | 4.0 | 0.00 | 0.00 | 0.00 | 33 | 1006.9 |
| 20260503235916 | 84 | 0 | 2.0 | 4.0 | 0.00 | 0.00 | 0.00 | 32 | 1006.9 |
| 20260503234936 | 84 | 0 | 4.0 | 6.0 | 0.00 | 0.00 | 0.00 | 31 | 1007.0 |
| 20260503233936 | 84 | 23 | 4.0 | 6.0 | 0.00 | 0.00 | 0.00 | 32 | 1007.0 |
| 20260503232916 | 84 | 0 | 2.0 | 4.0 | 0.00 | 0.00 | 0.00 | 35 | 1007.1 |
| 20260503231916 | 84 | 0 | 2.0 | 4.0 | 0.00 | 0.00 | 0.00 | 37 | 1007.2 |
| 20260503230916 | 84 | 338 | 2.0 | 3.0 | 0.00 | 0.00 | 0.00 | 37 | 1007.2 |
| 20260503225916 | 83 | 23 | 2.0 | 3.0 | 0.00 | 0.00 | 0.00 | 39 | 1007.4 |
| 20260503224916 | 83 | 45 | 4.0 | 5.0 | 0.00 | 0.00 | 0.00 | 41 | 1007.6 |
| 20260503223936 | 83 | 45 | 3.0 | 4.0 | 0.00 | 0.00 | 0.00 | 43 | 1007.7 |
| 20260503222916 | 83 | 45 | 2.0 | 2.0 | 0.00 | 0.00 | 0.00 | 45 | 1007.8 |
| 20260503221916 | 83 | 23 | 3.0 | 4.0 | 0.00 | 0.00 | 0.00 | 45 | 1008.0 |
| 20260503220936 | 83 | 338 | 1.0 | 3.0 | 0.00 | 0.00 | 0.00 | 44 | 1008.1 |
| 20260503215916 | 82 | 23 | 5.0 | 7.0 | 0.00 | 0.00 | 0.00 | 43 | 1008.4 |
| 20260503214916 | 82 | 23 | 1.0 | 3.0 | 0.00 | 0.00 | 0.00 | 48 | 1008.5 |
| 20260503213916 | 82 | 23 | 1.0 | 2.0 | 0.00 | 0.00 | 0.00 | 47 | 1008.6 |
| 20260503212916 | 81 | 315 | 1.0 | 2.0 | 0.00 | 0.00 | 0.00 | 47 | 1008.7 |
| 20260503211916 | 80 | 0.0 | 0.0 | 0.00 | 0.00 | 0.00 | 48 | 1008.7 | |
| 20260503210916 | 79 | 0.0 | 0.0 | 0.00 | 0.00 | 0.00 | 50 | 1008.8 | |
| 20260503205916 | 79 | 0.0 | 0.0 | 0.00 | 0.00 | 0.00 | 49 | 1008.8 | |
| 20260503204916 | 78 | 0.0 | 0.0 | 0.00 | 0.00 | 0.00 | 53 | 1009.0 | |
| 20260503203916 | 77 | 0.0 | 0.0 | 0.00 | 0.00 | 0.00 | 51 | 1009.0 | |
| 20260503202918 | 77 | 0.0 | 0.0 | 0.00 | 0.00 | 0.00 | 51 | 1009.2 | |
| 20260503201916 | 76 | 0.0 | 0.0 | 0.00 | 0.00 | 0.00 | 54 | 1009.4 | |
| 20260503200938 | 76 | 0.0 | 0.0 | 0.00 | 0.00 | 0.00 | 57 | 1009.5 | |
| 20260503195916 | 75 | 0.0 | 0.0 | 0.00 | 0.00 | 0.00 | 58 | 1009.6 | |
| 20260503194918 | 75 | 0.0 | 0.0 | 0.00 | 0.00 | 0.00 | 58 | 1009.8 | |
| 20260503193916 | 74 | 0.0 | 0.0 | 0.00 | 0.00 | 0.00 | 61 | 1009.9 | |
| 20260503192918 | 74 | 0.0 | 0.0 | 0.00 | 0.00 | 0.00 | 60 | 1010.0 | |
| 20260503191918 | 73 | 0.0 | 0.0 | 0.00 | 0.00 | 0.00 | 60 | 1010.1 | |
| 20260503190918 | 73 | 0.0 | 0.0 | 0.00 | 0.00 | 0.00 | 61 | 1010.2 | |
| 20260503185917 | 72 | 0.0 | 0.0 | 0.00 | 0.00 | 0.00 | 60 | 1010.3 | |
| 20260503184918 | 71 | 0.0 | 0.0 | 0.00 | 0.00 | 0.00 | 62 | 1010.5 | |
| 20260503183917 | 70 | 0.0 | 0.0 | 0.00 | 0.00 | 0.00 | 65 | 1010.6 | |
| 20260503182917 | 69 | 23 | 2.0 | 4.0 | 0.00 | 0.00 | 0.00 | 67 | 1010.8 |
| 20260503181918 | 68 | 23 | 1.0 | 1.0 | 0.00 | 0.00 | 0.00 | 70 | 1010.7 |
| 20260503180918 | 67 | 293 | 1.0 | 1.0 | 0.00 | 0.00 | 0.00 | 70 | 1010.8 |
| 20260503175918 | 67 | 23 | 1.0 | 1.0 | 0.00 | 0.00 | 0.00 | 70 | 1010.8 |
| 20260503174918 | 66 | 45 | 1.0 | 2.0 | 0.00 | 0.00 | 0.00 | 72 | 1010.8 |
| 20260503173938 | 65 | 0 | 2.0 | 2.0 | 0.00 | 0.00 | 0.00 | 73 | 1010.9 |
| 20260503172918 | 64 | 338 | 1.0 | 1.0 | 0.00 | 0.00 | 0.00 | 75 | 1010.9 |
| 20260503171918 | 63 | 45 | 1.0 | 2.0 | 0.00 | 0.00 | 0.00 | 76 | 1011.0 |
| 20260503170918 | 63 | 23 | 1.0 | 2.0 | 0.00 | 0.00 | 0.00 | 77 | 1011.0 |
| 20260503150918 | 55 | 0.0 | 0.0 | 0.00 | 0.00 | 0.00 | 95 | 1011.2 | |
| 20260503130918 | 49 | 0.0 | 0.0 | 0.00 | 0.00 | 0.00 | 94 | 1010.9 | |
| 20260503110217 | 52 | 0.0 | 0.0 | 0.00 | 0.00 | 0.00 | 94 | 1011.3 | |
| 20260503100217 | 52 | 0.0 | 0.0 | 0.00 | 0.00 | 0.00 | 93 | 1011.1 | |
| 20260503090217 | 53 | 0.0 | 0.0 | 0.00 | 0.00 | 0.00 | 92 | 1011.1 | |
| 20260503081237 | 54 | 225 | 1.0 | 1.0 | 0.00 | 0.00 | 0.00 | 92 | 1011.4 |
| 20260503080217 | 54 | 0.0 | 0.0 | 0.00 | 0.00 | 0.00 | 91 | 1011.3 | |
| 20260503072217 | 55 | 0.0 | 0.0 | 0.00 | 0.00 | 0.00 | 90 | 1011.2 | |
| 20260503071217 | 56 | 0.0 | 0.0 | 0.00 | 0.00 | 0.00 | 90 | 1011.2 | |
| 20260503070335 | 56 | 0.0 | 0.0 | 0.00 | 0.00 | 0.00 | 89 | 1011.2 | |
| 20260503060216 | 57 | 0.0 | 0.0 | 0.00 | 0.00 | 0.00 | 88 | 1011.3 | |
| 20260503054217 | 58 | 0.0 | 0.0 | 0.00 | 0.00 | 0.00 | 87 | 1011.3 | |
| 20260503053216 | 58 | 0.0 | 0.0 | 0.00 | 0.00 | 0.00 | 87 | 1011.4 | |
| 20260503052216 | 58 | 0.0 | 0.0 | 0.00 | 0.00 | 0.00 | 87 | 1011.4 | |
| 20260503051257 | 59 | 0.0 | 0.0 | 0.00 | 0.00 | 0.00 | 86 | 1011.3 | |
| 20260503050216 | 59 | 0.0 | 0.0 | 0.00 | 0.00 | 0.00 | 86 | 1011.3 | |
| 20260503045216 | 59 | 0.0 | 0.0 | 0.00 | 0.00 | 0.00 | 85 | 1011.3 | |
| 20260503044216 | 60 | 0.0 | 0.0 | 0.00 | 0.00 | 0.00 | 84 | 1011.6 | |
| 20260503043216 | 60 | 0.0 | 0.0 | 0.00 | 0.00 | 0.00 | 83 | 1011.4 | |
| 20260503042216 | 60 | 0.0 | 0.0 | 0.00 | 0.00 | 0.00 | 82 | 1011.2 | |
| 20260503041236 | 61 | 0.0 | 0.0 | 0.00 | 0.00 | 0.00 | 82 | 1011.0 |